GW5247 Weather Reports


Display with metric or nautical units.
time (UTC)temp
F
wind
direction
speed
MPH
gust
MPH
rain 1hr
in
rain 24hr
in
rain mn
in
humidity
%
barometer
mb
20260505024515 65 276 2.0 7.0 0.00 0.00 0.00 62 1016.2
20260505023516 66 255 2.0 5.0 0.00 0.00 0.00 61 1016.1
20260505022516 66 256 1.0 6.0 0.00 0.00 0.00 61 1016.1
20260505021516 66 250 2.0 11.0 0.00 0.00 0.00 61 1016.0
20260505020516 67 262 1.0 6.0 0.00 0.00 0.00 61 1016.0
20260505015517 67 252 1.0 7.0 0.00 0.00 0.00 61 1015.9
20260505014537 68 256 1.0 5.0 0.00 0.00 0.00 60 1015.8
20260505013517 68 257 1.0 7.0 0.00 0.00 0.00 58 1015.7
20260505012517 69 257 2.0 5.0 0.00 0.00 0.00 56 1015.4
20260505011517 69 251 2.0 6.0 0.00 0.00 0.00 53 1015.2
20260505010538 68 278 1.0 4.0 0.00 0.00 0.00 50 1015.1
20260505005537 68 286 0.0 3.0 0.00 0.00 0.00 49 1015.0
20260505004558 68 268 1.0 3.0 0.00 0.00 0.00 49 1014.8
20260505003538 69 291 0.0 2.0 0.00 0.00 0.00 48 1014.8
20260505002518 70 274 0.0 2.0 0.00 0.00 0.00 46 1014.8
20260505001518 71 275 0.0 3.0 0.00 0.00 0.00 45 1014.7
20260505000518 72 264 0.0 4.0 0.00 0.00 0.00 44 1014.6
20260504235515 73 272 1.0 4.0 0.00 0.00 0.00 42 1014.5
20260504234515 73 265 1.0 5.0 0.00 0.00 0.00 41 1014.3
20260504233516 74 255 1.0 5.0 0.00 0.00 0.00 41 1014.2
20260504232516 75 234 1.0 3.0 0.00 0.00 0.00 40 1014.1
20260504231516 75 251 1.0 4.0 0.00 0.00 0.00 39 1014.0
20260504230517 76 249 2.0 8.0 0.00 0.00 0.00 38 1013.9
20260504225516 76 245 1.0 4.0 0.00 0.00 0.00 39 1013.9
20260504224516 77 244 2.0 5.0 0.00 0.00 0.00 37 1013.9
20260504223557 78 249 2.0 6.0 0.00 0.00 0.00 37 1013.8
20260504222517 78 241 2.0 7.0 0.00 0.00 0.00 37 1013.8
20260504221518 79 246 3.0 7.0 0.00 0.00 0.00 36 1013.7
20260504220537 79 239 2.0 5.0 0.00 0.00 0.00 35 1013.8
20260504215537 80 243 3.0 8.0 0.00 0.00 0.00 35 1013.6
20260504214517 80 238 3.0 10.0 0.00 0.00 0.00 35 1013.5
20260504213517 80 241 2.0 6.0 0.00 0.00 0.00 33 1013.5
20260504212538 80 256 2.0 5.0 0.00 0.00 0.00 33 1013.6
20260504211518 80 234 2.0 9.0 0.00 0.00 0.00 32 1013.5
20260504210515 80 253 4.0 9.0 0.00 0.00 0.00 31 1013.6
20260504205515 80 236 2.0 6.0 0.00 0.00 0.00 31 1013.6
20260504204515 81 247 3.0 10.0 0.00 0.00 0.00 31 1013.6
20260504203516 81 230 2.0 5.0 0.00 0.00 0.00 31 1013.7
20260504202516 81 218 2.0 7.0 0.00 0.00 0.00 31 1013.8
20260504201516 81 246 3.0 8.0 0.00 0.00 0.00 30 1014.0
20260504200516 80 249 2.0 6.0 0.00 0.00 0.00 31 1013.9
20260504195516 80 252 3.0 9.0 0.00 0.00 0.00 31 1014.0
20260504194516 80 233 2.0 7.0 0.00 0.00 0.00 31 1013.9
20260504193517 80 243 3.0 8.0 0.00 0.00 0.00 31 1014.0
20260504192516 80 253 2.0 6.0 0.00 0.00 0.00 31 1014.2
20260504191517 79 243 2.0 6.0 0.00 0.00 0.00 34 1014.3
20260504190517 79 247 4.0 8.0 0.00 0.00 0.00 33 1014.6
20260504185518 79 229 2.0 5.0 0.00 0.00 0.00 35 1014.5
20260504184538 79 227 3.0 9.0 0.00 0.00 0.00 34 1014.5
20260504183538 78 239 4.0 7.0 0.00 0.00 0.00 33 1014.6
20260504182538 78 247 4.0 9.0 0.00 0.00 0.00 35 1014.7
20260504181518 78 246 4.0 8.0 0.00 0.00 0.00 35 1014.8
20260504180515 78 233 2.0 8.0 0.00 0.00 0.00 36 1014.7
20260504175515 77 241 3.0 7.0 0.00 0.00 0.00 36 1014.9
20260504174516 77 244 4.0 10.0 0.00 0.00 0.00 37 1015.1
20260504173516 76 250 2.0 5.0 0.00 0.00 0.00 39 1015.2
20260504172516 76 254 4.0 9.0 0.00 0.00 0.00 38 1015.4
20260504171515 75 333 2.0 5.0 0.00 0.00 0.00 39 1015.5
20260504170516 76 248 4.0 9.0 0.00 0.00 0.00 39 1015.5
20260504150538 69 249 2.0 7.0 0.00 0.00 0.00 53 1016.5
20260504140516 64 272 1.0 4.0 0.00 0.00 0.00 65 1016.6
20260504130537 59 273 2.0 6.0 0.00 0.00 0.00 74 1017.1
20260504110536 45 64 0.0 1.0 0.00 0.00 0.00 96 1017.8
20260504100516 44 51 0.0 0.0 0.00 0.01 0.00 95 1017.9
20260504081518 46 106 0.0 0.0 0.00 0.01 0.00 90 1017.8
20260504080515 46 0.0 0.0 0.00 0.01 0.00 89 1017.8
20260504050518 43 104 0.0 0.0 0.00 0.01 0.00 89 1018.3
20260504045518 44 46 0.0 1.0 0.00 0.01 0.00 88 1018.4
20260504044515 44 0.0 0.0 0.00 0.01 0.00 87 1018.4
20260504043535 44 348 0.0 1.0 0.00 0.01 0.00 86 1018.4
20260504042515 44 12 0.0 1.0 0.00 0.01 0.00 86 1018.4
20260504041536 44 352 0.0 1.0 0.00 0.01 0.00 86 1018.4
20260504040516 45 0.0 0.0 0.00 0.01 0.00 86 1018.4
20260504035516 45 0.0 0.0 0.00 0.01 0.01 85 1018.4
20260504034516 45 38 0.0 1.0 0.00 0.01 0.01 85 1018.4
20260504033517 45 224 0.0 0.0 0.00 0.01 0.01 86 1018.2
20260504032537 45 0.0 0.0 0.00 0.01 0.01 86 1018.2
20260504031517 45 0.0 0.0 0.00 0.01 0.01 86 1018.2
20260504030517 45 18 0.0 1.0 0.00 0.01 0.01 86 1018.2
20260504025537 45 337 0.0 0.0 0.00 0.01 0.01 84 1018.2